Visby Flygplats, Sweden

12:07 PM CEST on June 28, 2017 (GMT +0200)
Visby

Weather History for ESSV - February, 2013

Change the Weather History Date:

Saturday, February 23, 2013

  Actual Average Record
Temperature  
Mean Temperature 26 °F -  
Max Temperature 29 °F - - ()
Min Temperature 22 °F - - ()
Degree Days  
Heating Degree Days 40    
Moisture  
Dew Point 21 °F    
Average Humidity 77    
Maximum Humidity 93    
Minimum Humidity 63    
Precipitation  
Precipitation 0.00 in - - ()
Sea Level Pressure  
Sea Level Pressure 30.34 in    
Wind  
Wind Speed 6 mph ()    
Max Wind Speed 17 mph    
Max Gust Speed -    
Visibility 6.8 miles    
Events      
T = Trace of Precipitation, MM = Missing Value Source: Averaged Metar Reports

Daily Weather History Graph

Daily Weather History Graph

Search for Another Location

Airport or City:

Trip Planner

Search our weather history database for the weather conditions in past years. The results will help you decide how hot, cold, wet, or windy it might be!

Date:

Astronomy

Feb. 23, 2013 Rise Set
Actual Time 6:56 AM CET 5:04 PM CET
Civil Twilight 6:16 AM CET 5:44 PM CET
Nautical Twilight 5:31 AM CET 6:29 PM CET
Astronomical Twilight 4:46 AM CET 7:14 PM CET
Moon 2:40 PM CET (2/23) 5:28 AM CET (2/23)
Length of Visible Light 11h 27m
Length of Day
10h 07m
Waxing Gibbous, 94% of the Moon is Illuminated
Feb 23
Waxing Gibbous
Feb 25
Full
Mar 4
Last Quarter
Mar 11
New
Mar 19
First Quarter

Hourly Weather History & Observations

Time (CET) Temp. Windchill Dew Point Humidity Pressure Visibility Wind Dir Wind Speed Gust Speed Precip Events Conditions
12:00 AM 26 °F - 20 °F 68% 30.33 in 31 mi East 2.2 mph - -   Overcast
12:20 AM 26.6 °F 22.6 °F 19.4 °F 74% 30.30 in 6.2 mi East 3.5 mph - N/A   Overcast
12:50 AM 26.6 °F 22.6 °F 19.4 °F 74% 30.30 in 6.2 mi East 3.5 mph - N/A   Overcast
1:00 AM 26 °F - 20 °F 68% 30.33 in 31 mi East 2.2 mph - -   Overcast
1:20 AM 26.6 °F - 19.4 °F 74% 30.30 in 6.2 mi ENE 2.3 mph - N/A   Overcast
1:50 AM 26.6 °F - 19.4 °F 74% 30.30 in 6.2 mi NE 2.3 mph - N/A   Overcast
2:00 AM 26 °F - 20 °F 70% 30.33 in 31 mi NE 2.2 mph - -   Overcast
2:20 AM 26.6 °F 21.2 °F 21.2 °F 80% 30.30 in 6.2 mi ENE 4.6 mph - N/A   Overcast
2:50 AM 26.6 °F 20.0 °F 19.4 °F 74% 30.30 in 6.2 mi East 5.8 mph - N/A   Overcast
3:00 AM 26 °F - 20 °F 70% 30.34 in 31 mi East 4.5 mph - -   Overcast
3:20 AM 26.6 °F 19.1 °F 19.4 °F 74% 30.30 in 6.2 mi East 6.9 mph - N/A   Overcast
3:50 AM 26.6 °F 21.2 °F 19.4 °F 74% 30.30 in 6.2 mi East 4.6 mph - N/A   Overcast
4:20 AM 26.6 °F 22.6 °F 19.4 °F 74% 30.30 in 6.2 mi ENE 3.5 mph - N/A   Overcast
4:50 AM 26.6 °F 22.6 °F 21.2 °F 80% 30.33 in 6.2 mi East 3.5 mph - N/A   Overcast
5:00 AM 26 °F - 20 °F 70% 30.34 in 31 mi ENE 2.2 mph - -   Overcast
5:20 AM 26.6 °F 22.6 °F 21.2 °F 80% 30.33 in 6.2 mi ENE 3.5 mph - N/A   Overcast
5:50 AM 26.6 °F 22.6 °F 21.2 °F 80% 30.33 in 6.2 mi East 3.5 mph - N/A   Overcast
6:00 AM 26 °F - 21 °F 72% 30.35 in 31 mi NE 2.2 mph - -   Overcast
6:20 AM 26.6 °F 22.6 °F 21.2 °F 80% 30.33 in 6.2 mi NE 3.5 mph - N/A   Overcast
6:50 AM 26.6 °F 18.2 °F 19.4 °F 74% 30.33 in 6.2 mi ENE 8.1 mph - N/A   Overcast
7:00 AM 27 °F - 19 °F 63% 30.35 in 31 mi ENE 8.9 mph - -   Overcast
7:20 AM 26.6 °F 17.5 °F 19.4 °F 74% 30.33 in 6.2 mi ENE 9.2 mph - N/A   Overcast
7:50 AM 26.6 °F 16.8 °F 19.4 °F 74% 30.33 in 6.2 mi East 10.4 mph - N/A   Mostly Cloudy
8:00 AM 27 °F - 20 °F 64% 30.36 in 31 mi ENE 6.7 mph - -   Overcast
8:20 AM 26.6 °F 17.5 °F 19.4 °F 74% 30.33 in 6.2 mi East 9.2 mph - N/A   Mostly Cloudy
8:50 AM 26.6 °F 16.8 °F 19.4 °F 74% 30.36 in 6.2 mi ENE 10.4 mph - N/A   Mostly Cloudy
9:00 AM 27 °F - 20 °F 66% 30.37 in 19 mi East 8.9 mph - -   Overcast
9:20 AM 26.6 °F 16.8 °F 21.2 °F 80% 30.36 in 6.2 mi East 10.4 mph - N/A   Mostly Cloudy
9:50 AM 26.6 °F 16.8 °F 19.4 °F 74% 30.36 in 6.2 mi East 10.4 mph - N/A   Mostly Cloudy
10:20 AM 26.6 °F 18.2 °F 21.2 °F 80% 30.36 in 6.2 mi East 8.1 mph - N/A   Mostly Cloudy
10:50 AM 26.6 °F 16.8 °F 21.2 °F 80% 30.36 in 6.2 mi East 10.4 mph - N/A   Mostly Cloudy
11:00 AM 27 °F - 21 °F 71% 30.39 in 7 mi East 8.9 mph - -   Overcast
11:20 AM 26.6 °F 16.8 °F 21.2 °F 80% 30.36 in 6.2 mi East 10.4 mph - N/A   Mostly Cloudy
11:50 AM 28.4 °F 20.4 °F 21.2 °F 74% 30.36 in 6.2 mi East 8.1 mph - N/A   Mostly Cloudy
12:00 PM 28 °F - 21 °F 66% 30.38 in 10 mi East 6.7 mph - -   Overcast
12:20 PM 28.4 °F 19.7 °F 21.2 °F 74% 30.36 in 6.2 mi East 9.2 mph - N/A   Mostly Cloudy
12:50 PM 28.4 °F 19.1 °F 21.2 °F 74% 30.36 in 6.2 mi East 10.4 mph - N/A   Mostly Cloudy
1:00 PM 29 °F - 22 °F 64% 30.38 in 11 mi ENE 8.9 mph - -   Overcast
1:20 PM 28.4 °F 18.5 °F 21.2 °F 74% 30.36 in 6.2 mi ENE 11.5 mph - N/A   Mostly Cloudy
1:50 PM 28.4 °F 19.1 °F 21.2 °F 74% 30.36 in 6.2 mi East 10.4 mph - N/A   Mostly Cloudy
2:00 PM 29 °F - 22 °F 65% 30.38 in 10 mi ENE 11.2 mph - -   Overcast
2:20 PM 28.4 °F 19.1 °F 21.2 °F 74% 30.36 in 6.2 mi East 10.4 mph - N/A   Mostly Cloudy
2:50 PM 28.4 °F 19.1 °F 21.2 °F 74% 30.36 in 6.2 mi ENE 10.4 mph - N/A   Scattered Clouds
3:00 PM 28 °F - 21 °F 67% 30.38 in 11 mi ENE 8.9 mph - -   Mostly Cloudy
3:20 PM 28.4 °F 18.5 °F 21.2 °F 74% 30.36 in 6.2 mi ENE 11.5 mph - N/A   Mostly Cloudy
3:50 PM 28.4 °F 18.0 °F 21.2 °F 74% 30.36 in 6.2 mi East 12.7 mph - N/A   Mostly Cloudy
4:20 PM 26.6 °F 16.2 °F 21.2 °F 80% 30.36 in 6.2 mi ENE 11.5 mph - N/A   Partly Cloudy
4:50 PM 26.6 °F 16.8 °F 21.2 °F 80% 30.36 in 6.2 mi ENE 10.4 mph - N/A   Partly Cloudy
5:00 PM 26 °F - 21 °F 74% 30.37 in 8 mi ENE 8.9 mph - -   Scattered Clouds
5:20 PM 24.8 °F 14.0 °F 21.2 °F 86% 30.33 in 6.2 mi NE 11.5 mph - N/A   Mostly Cloudy
5:50 PM 26.6 °F 17.5 °F 21.2 °F 80% 30.33 in 6.2 mi NE 9.2 mph - N/A   Mostly Cloudy
6:00 PM 26 °F - 22 °F 76% 30.36 in 7 mi NE 8.9 mph - -   Overcast
6:20 PM 24.8 °F 14.6 °F 21.2 °F 86% 30.33 in 6.2 mi NE 10.4 mph - N/A   Mostly Cloudy
6:50 PM 24.8 °F 14.6 °F 23.0 °F 93% 30.33 in 6.2 mi NE 10.4 mph - N/A   Mostly Cloudy
7:00 PM 26 °F - 23 °F 83% 30.36 in 7 mi NE 8.9 mph - -   Overcast
7:20 PM 26.6 °F 16.8 °F 23.0 °F 86% 30.33 in 6.2 mi ENE 10.4 mph - N/A   Overcast
7:50 PM 26.6 °F 16.2 °F 23.0 °F 86% 30.36 in 6.2 mi East 11.5 mph - N/A   Mostly Cloudy
8:00 PM 27 °F - 24 °F 82% 30.37 in 7 mi ENE 13.4 mph - -   Mostly Cloudy
8:20 PM 26.6 °F 14.7 °F 24.8 °F 93% 30.33 in 6.2 mi East 15.0 mph - N/A   Mostly Cloudy
8:50 PM 26.6 °F 13.8 °F 24.8 °F 93% 30.33 in 6.2 mi ENE 17.3 mph - N/A   Mostly Cloudy
9:00 PM 27 °F - 24 °F 85% 30.36 in 7 mi ENE 13.4 mph - -   Mostly Cloudy
9:20 PM 26.6 °F 14.3 °F 24.8 °F 93% 30.33 in 6.2 mi East 16.1 mph - N/A   Scattered Clouds
9:50 PM 26.6 °F 14.7 °F 24.8 °F 93% 30.36 in 6.2 mi East 15.0 mph - N/A   Scattered Clouds
10:20 PM 26.6 °F 15.2 °F 24.8 °F 93% 30.36 in 6.2 mi ENE 13.8 mph - N/A   Scattered Clouds
10:50 PM 28.4 °F 18.0 °F 24.8 °F 86% 30.36 in 6.2 mi ENE 12.7 mph - N/A   Mostly Cloudy
11:00 PM 28 °F - 26 °F 86% 30.37 in 7 mi ENE 11.2 mph - -   Overcast
11:20 PM 28.4 °F 18.0 °F 26.6 °F 93% 30.36 in 6.2 mi ENE 12.7 mph - N/A   Mostly Cloudy
11:50 PM 28.4 °F 17.5 °F 26.6 °F 93% 30.33 in 6.2 mi ENE 13.8 mph - N/A   Overcast